Rochester, NY

4:36 PM EST on February 08, 2016 (GMT -0500)
Greater Rochester International

Weather History for KROC - September, 2014

Change the Weather History Date:

Sunday, September 28, 2014

  Actual Average Record
Temperature  
Mean Temperature 66 °F 57 °F  
Max Temperature 80 °F 67 °F 90 °F (1959)
Min Temperature 51 °F 47 °F 28 °F (1947)
Degree Days  
Heating Degree Days 0 9  
Month to date heating degree days 124 130  
Since 1 July heating degree days 149 164  
Cooling Degree Days 1 1  
Month to date cooling degree days 67 50  
Year to date cooling degree days 531 534  
Growing Degree Days 16 (Base 50)    
Moisture  
Dew Point 54 °F    
Average Humidity 71    
Maximum Humidity 100    
Minimum Humidity 42    
Precipitation  
Precipitation 0.00 in 0.11 in 1.95 in (1962)
Month to date precipitation 1.33 3.17  
Year to date precipitation 26.36 25.77  
Snow  
Snow 0.00 in 0.00 in 0.00 in ()
Month to date snowfall 0.0 0.0  
Since 1 July snowfall 0.0 0.0  
Since 1 September snowfall 0.0 0.0  
Snow Depth 0.00 in    
Sea Level Pressure  
Sea Level Pressure 30.15 in    
Wind  
Wind Speed 4 mph (WSW)    
Max Wind Speed 10 mph    
Max Gust Speed 13 mph    
Visibility 9 miles    
Events      
T = Trace of Precipitation, MM = Missing Value Source: NWS Daily Summary

Daily Weather History Graph

Daily Weather History Graph

Search for Another Location

Airport or City:

Trip Planner

Search our weather history database for the weather conditions in past years. The results will help you decide how hot, cold, wet, or windy it might be!

Date:

Astronomy

Sep. 28, 2014 Rise Set
Actual Time 7:04 AM EDT 6:57 PM EDT
Civil Twilight 6:36 AM EDT 7:25 PM EDT
Nautical Twilight 6:03 AM EDT 7:58 PM EDT
Astronomical Twilight 5:29 AM EDT 8:32 PM EDT
Moon 11:22 AM EDT (9/28) 9:33 PM EDT (9/28)
Length of Visible Light 12h 49m
Length of Day
11h 52m
Waxing Crescent, 19% of the Moon is Illuminated
Sep 28
Waxing Crescent
Oct 1
First Quarter
Oct 8
Full
Oct 15
Last Quarter
Oct 23
New

Hourly Weather History & Observations

Time (EDT) Temp. Heat Index Dew Point Humidity Pressure Visibility Wind Dir Wind Speed Gust Speed Precip Events Conditions
12:54 AM 55.0 °F - 53.1 °F 93% 30.22 in 7.0 mi SW 3.5 mph - N/A   Clear
1:54 AM 55.0 °F - 53.1 °F 93% 30.22 in 7.0 mi SW 3.5 mph - N/A   Clear
2:54 AM 55.0 °F - 53.1 °F 93% 30.22 in 7.0 mi SW 4.6 mph - N/A   Clear
3:54 AM 54.0 °F - 53.1 °F 97% 30.21 in 6.0 mi SW 3.5 mph - N/A   Clear
4:54 AM 53.1 °F - 51.1 °F 93% 30.21 in 6.0 mi Calm Calm - N/A   Clear
5:54 AM 51.1 °F - 50.0 °F 96% 30.20 in 6.0 mi SW 4.6 mph - N/A   Clear
6:54 AM 52.0 °F - 51.1 °F 97% 30.21 in 9.0 mi West 3.5 mph - N/A   Scattered Clouds
7:54 AM 54.0 °F - 52.0 °F 93% 30.21 in 10.0 mi WSW 4.6 mph - N/A   Mostly Cloudy
8:54 AM 57.0 °F - 54.0 °F 89% 30.21 in 10.0 mi SW 8.1 mph - N/A   Mostly Cloudy
9:54 AM 63.0 °F - 55.9 °F 78% 30.20 in 10.0 mi WSW 4.6 mph - N/A   Mostly Cloudy
10:54 AM 70.0 °F - 57.9 °F 65% 30.19 in 10.0 mi SW 3.5 mph - N/A   Scattered Clouds
11:54 AM 75.0 °F - 55.9 °F 51% 30.17 in 10.0 mi Calm Calm - N/A   Scattered Clouds
12:54 PM 78.1 °F - 55.0 °F 45% 30.16 in 10.0 mi Variable 3.5 mph - N/A   Partly Cloudy
1:54 PM 80.1 °F 80.1 °F 55.0 °F 42% 30.13 in 10.0 mi North 3.5 mph - N/A   Scattered Clouds
2:54 PM 80.1 °F 80.1 °F 55.0 °F 42% 30.11 in 10.0 mi NNE 8.1 mph - N/A   Mostly Cloudy
3:54 PM 78.1 °F - 54.0 °F 43% 30.10 in 10.0 mi NE 9.2 mph - N/A   Mostly Cloudy
4:54 PM 75.0 °F - 54.0 °F 48% 30.09 in 10.0 mi NE 6.9 mph - N/A   Mostly Cloudy
5:54 PM 73.0 °F - 54.0 °F 51% 30.08 in 10.0 mi ENE 3.5 mph - N/A   Mostly Cloudy
6:54 PM 72.0 °F - 53.1 °F 51% 30.07 in 10.0 mi NNE 4.6 mph - N/A   Overcast
7:54 PM 68.0 °F - 55.9 °F 65% 30.07 in 10.0 mi Calm Calm - N/A   Overcast
8:54 PM 64.0 °F - 57.0 °F 78% 30.07 in 10.0 mi Calm Calm - N/A   Overcast
9:54 PM 62.1 °F - 57.0 °F 84% 30.06 in 10.0 mi Calm Calm - N/A   Mostly Cloudy
10:54 PM 60.1 °F - 55.9 °F 86% 30.06 in 10.0 mi SW 3.5 mph - N/A   Mostly Cloudy
11:54 PM 59.0 °F - 55.9 °F 90% 30.05 in 10.0 mi Calm Calm - N/A   Mostly Cloudy